Regional Weather Roundup
Issued by NWS

Home | Current Version | Previous Version | Text Only | Print | Product List | Glossary On
Versions: 1 2 3 4 5 6 7 8 9 10 11 12 13 14 15 16 17 18 19 20 21 22 23 24 25 26 27 28 29 30 31 32 33 34 35 36 37 38 39 40 41 42 43 44 45 46 47 48 49 50
000
ASUS42 KKEY 282010
RWRKEY

FLORIDA REGIONAL WEATHER ROUNDUP FOR THE FLORIDA KEYS
NATIONAL WEATHER SERVICE KEY WEST FLORIDA
300 PM EST SAT FEB 28 2015

...SOUTH FLORIDA AND THE KEYS...

CITY           SKY/WX    TMP DP  RH WIND       PRES   REMARKS
FORT MYERS     CLOUDY    83  67  58 E8        30.18F
SW REGIONAL AP PTSUNNY   82  67  60 E9        30.18F
NAPLES         PTSUNNY   80  69  69 W13       30.18F
MIAMI          PTSUNNY   73  69  87 E12       30.19F
WEST KENDALL   PTSUNNY   77  68  73 E12       30.20F
HOMESTEAD      MOSUNNY   80  71  73 NE12      30.19F
MARATHON       MOSUNNY   82  74  76 E12       30.17F
BOCA CHICA NAS PTSUNNY   82  72  71 E13       30.17F
KEY WEST INTL  SUNNY     81  74  79 E10       30.18F

...INTERNATIONAL WEATHER...

CITY           SKY/WX    TMP DP  RH WIND       PRES   REMARKS
NASSAU BAHAMAS MOSUNNY   81  70  69 E12       30.20F
CANCUN MEXICO  MOSUNNY   84  72  65 SE14      30.10F
COZUMEL MEXICO MOSUNNY   81  72  74 SE16G28   30.09F

ADJACENT COASTAL WATERS...

STATION/POSITION TIME  SKY/WX   TEMP    WIND        PRES    WAVE
                                AIR SEA DIR/SP/G            HT/PER
                 (UTC)          (F)     (DEG/KT/KT) (MB)    (FT/S)
PULASKI SHOAL LI 1900            70      70/  8/ 10 1022.0F
SAND KEY         1950            75      60/  9/ 10 1021.7F
SOMBRERO KEY     2000            77      80/  8/  8 1022.4F
LONG KEY         1900            77 78   90/ 12/ 14 1023.1F
MOLASSES REEF    2000            76 77   90/ 11/ 12 1022.1F
FOWEY ROCKS      NOT AVBL
Buoy 42080       NOT AVBL

$$



USA.gov is the U.S. government's official web portal to all federal, state and local government web resources and services.